Flag for Greenland Weather past 2 weeks in Nuuk, Greenland

Now
21 °F

Overcast.


Feels Like: 10 °F
Forecast: 24 / 29 °F
Wind: 10 mph from Northwest

Location: Godthaab / Nuuk

Current Time: Apr 26, 2015 at 1:03:51 AM

Latest Report: Apr 25, 2015 at 11:50 PM


Visibility: N/A

Pressure: 30.27 "Hg

Humidity: 80%

Dew point: 16 °F

Location of NuukLocation

Historic Weather in Nuuk — Graph

°F

Nuuk temperature yesterday

Maximum temperature yesterday: 30 °F (at 9:50 AM)
Minimum temperature yesterday: 21 °F (at 10:50 PM)
Average temperature yesterday: 26 °F

Past Weeks' High & Low Weather Summary

 TemperatureHumidityPressure
High37 °F (Apr 14, 7:50 PM)100% (Apr 14, 7:50 AM)30.39 "Hg (Apr 14, 7:50 AM)
Low10 °F (Apr 15, 10:50 PM)50% (Apr 11, 12:50 AM)28.65 "Hg (Apr 15, 8:50 AM)
Average22 °F78%29.74 "Hg
* Reported Apr 10 11:50 PM — Apr 25 11:50 PM, Nuuk, Weather by CustomWeather, © 2015

Note: Actual official high and low records may vary slightly from our data, if they occured in-between our weather recording intervals... More about our weather records

Advertising

Nuuk weather history for previous 24 hours

 ConditionsComfort  
Time TempWeatherWind HumidityBarometerVisibility
11:50 PM
Sat, Apr 25
21 °FOvercast.10 mph80%30.27 "HgN/A
10:50 PM21 °FOvercast.13 mph80%30.24 "HgN/A
9:50 PM23 °FOvercast.12 mph80%30.24 "HgN/A
8:50 PM23 °FPartly sunny.10 mph86%30.24 "HgN/A
7:50 PM25 °FPartly sunny.8 mph80%30.21 "HgN/A
6:50 PM25 °FPartly sunny.7 mph80%30.18 "HgN/A
5:50 PM27 °FPartly sunny.10 mph80%30.18 "HgN/A
4:50 PM27 °FPartly sunny.8 mph80%30.18 "HgN/A
3:50 PM27 °FPartly sunny.8 mph86%30.18 "HgN/A
2:50 PM27 °FPartly sunny.9 mph86%30.18 "HgN/A
1:50 PM28 °FPartly sunny.9 mph86%30.15 "HgN/A
12:50 PM28 °FPartly sunny.6 mph86%30.18 "HgN/A
11:50 AM30 °FPartly sunny.8 mph86%30.18 "HgN/A
10:50 AM30 °FPartly sunny.10 mph86%30.18 "HgN/A
9:50 AM30 °FPartly sunny.5 mph86%30.18 "HgN/A
8:50 AM28 °FPartly sunny.No wind93%30.18 "HgN/A
7:50 AM28 °FPartly sunny.No wind86%30.21 "HgN/A
6:50 AM27 °FBroken clouds.No wind86%30.21 "HgN/A
5:50 AM27 °FPassing clouds.5 mph86%30.21 "HgN/A
4:50 AM25 °FPartly cloudy.5 mph93%30.21 "HgN/A
3:50 AM27 °FLow clouds.No wind86%30.21 "HgN/A
2:50 AM27 °FPassing clouds.3 mph86%30.21 "HgN/A
1:50 AM25 °FPassing clouds.No wind93%30.24 "HgN/A
Weather by CustomWeather, © 2015

See weather overviewHow to use our weather pages